Location: Longparish
(51.1833°N, 1.4000°W)
Time: 13:23:16
(UTC+00:00)

Daily predictions for brighter satellites

Satellite Brightness Start Highest point End
(mag) Time Altitude Azimuth Time Altitude Azimuth Time Altitude Azimuth
Helios 1A Rocket 3.2 21:03:44 10° SSE 21:07:44 56° ENE 21:11:47 10° N
Cosmos 1271 Rocket 4.3 21:04:34 10° NNW 21:08:12 35° W 21:11:47 10° SSW
Cosmos 1741 Rocket 4.4 21:03:22 10° NNW 21:08:40 66° WSW 21:13:56 10° S
IRAS Rocket 4.3 21:04:31 10° NNE 21:10:08 72° ESE 21:15:40 10° S
Cosmos 2154 Rocket 4.1 21:03:59 10° N 21:10:12 69° ENE 21:16:22 10° SSE
Cosmos 1455 3.8 21:09:23 10° NNW 21:12:52 33° W 21:16:19 10° SSW
Ariane Rocket 3.8 21:11:47 10° S 21:16:44 50° W 21:21:42 10° NNW
Cosmos 2360 4.4 21:11:57 10° NNW 21:17:42 76° WSW 21:23:25 10° SSE
Cosmos 2082 Rocket 3.0 21:14:06 10° SSE 21:19:04 32° ESE 21:24:02 10° NE
CZ-2C R/B 4.3 21:16:14 10° NNE 21:20:30 38° E 21:24:40 10° SSE
SPOT 3 Rocket 3.9 21:16:43 10° S 21:21:54 68° WSW 21:27:08 10° NNW
Cosmos 2228 3.0 21:18:04 10° NNW 21:22:19 83° W 21:26:34 10° S
Cosmos 1892 Rocket 4.4 21:21:28 10° SSE 21:25:23 33° E 21:29:18 10° NNE
Cosmos 2360 Rocket 4.3 21:22:51 10° NNW 21:26:54 19° NNE 21:30:56 10° ENE
Cosmos 2058 Rocket 3.9 21:26:11 10° N 21:30:21 39° ENE 21:34:19 11° SE
USA 234 3.9 21:24:46 10° E 21:31:11 58° N 21:37:35 10° WNW
Resurs 01 Rocket 3.7 21:28:28 10° SSW 21:32:06 24° W 21:35:45 10° NW
Meteor 1-21 Rocket 4.2 21:32:37 10° S 21:38:14 81° E 21:43:59 10° NNE
CZ-4B R/B 3.4 21:36:28 10° N 21:38:56 25° WNW 21:41:23 10° SW
Cosmos 1331 Rocket 4.1 21:36:26 10° SSW 21:41:45 90° E 21:47:05 10° NNE
SPOT 5 2.9 21:38:23 10° S 21:42:42 63° WSW 21:47:01 10° NNW
Terra 1.9 21:39:42 10° SSE 21:44:28 88° WSW 21:49:16 10° NNW
SJ 16-02 3.4 21:41:53 10° N 21:45:05 19° NE 21:48:16 10° E
H-2A R/B 4.3 21:41:58 10° N 21:45:44 28° WNW 21:49:34 10° WSW
Spot 2 Rocket 3.9 21:42:03 10° S 21:47:06 61° WSW 21:52:11 10° NNW
Cosmos 1892 3.6 21:44:17 13° SSE 21:47:06 32° E 21:50:30 10° NNE
FALCON 9 DEB 2.9 21:43:51 10° WNW 21:47:07 77° SSW 21:50:08 12° ESE
Cosmos 2218 Rocket 4.5 21:46:02 10° N 21:52:17 51° ENE 21:57:46 13° SSE
ASTEX 1 4.0 21:49:58 10° NNE 21:54:45 43° E 21:58:45 14° SSE
Cosmos 1606 Rocket 4.0 21:51:32 10° NNW 21:55:48 59° W 22:00:04 10° S
USA 276 2.0 21:54:10 10° W 21:57:11 62° S 21:59:52 12° ESE
Cosmos 1697 Rocket 3.7 21:55:01 10° NW 22:00:10 38° WSW 22:05:16 10° S
Cosmos 1980 Rocket 2.4 21:54:56 10° NW 22:00:37 68° WSW 22:05:29 14° SSE
GP-B 3.5 21:57:18 10° N 22:01:38 49° E 22:05:00 16° SSE
SL-16 R/B 3.0 21:56:29 10° NNW 22:01:57 45° NE 22:07:09 11° ESE
ARIANE 5 R/B 2.7 21:58:45 13° S 22:02:41 79° WSW 22:07:08 10° NNW
Cosmos 2369 4.2 22:00:59 10° NW 22:06:36 56° WSW 22:11:30 14° S
ERS-1 Rocket 3.7 22:02:37 10° S 22:07:28 47° W 22:12:21 10° NNW
Cosmos 2341 Rocket 4.0 22:03:45 10° N 22:10:07 87° E 22:15:36 14° S
ATLAS 5 CENTAUR R/B 2.1 22:08:26 16° S 22:10:51 30° ESE 22:14:29 10° ENE
Cosmos 1302 Rocket 3.9 22:07:50 10° SSW 22:13:02 84° ESE 22:18:16 10° NNE
COSMOS 2406 3.4 22:10:20 10° SSW 22:16:07 82° WNW 22:21:55 10° NNE
Cosmos 1726 Rocket 4.4 22:13:56 10° NNW 22:18:04 45° W 22:22:00 11° SSW
In-Cosmos 22 Rocket 4.3 22:14:45 14° S 22:19:19 57° E 22:24:38 10° NNE
Cosmos 1408 2.4 22:19:29 15° SSW 22:22:16 84° W 22:25:45 10° N
Cosmos 968 Rocket 4.2 22:17:19 10° NW 22:22:19 48° WSW 22:26:32 14° S
Okean 1-7 Rocket 3.9 22:19:49 18° SSE 22:22:55 50° E 22:27:18 10° NNE
Cosmos 1869 3.4 22:20:23 10° N 22:24:16 65° ENE 22:26:47 21° SSE
Cosmos 1833 Rocket 3.8 22:21:27 10° SW 22:26:51 46° NW 22:32:18 10° NNE
Meteor 1-27 4.2 22:25:13 10° NNW 22:30:50 87° ENE 22:35:01 18° SSE
Cosmos 1825 2.3 22:28:50 21° SSE 22:31:07 56° E 22:34:48 10° NNE
Cosmos 1812 Rocket 4.0 22:31:57 10° N 22:36:21 52° ENE 22:39:08 21° SE
Cosmos 2322 Rocket 2.7 22:31:11 10° NNW 22:36:48 56° NE 22:41:25 15° SE
USA 267 3.7 22:31:50 10° ENE 22:37:55 40° SE 22:43:58 10° SSW
Spot 4 4.2 22:35:11 19° SE 22:38:30 54° ENE 22:43:12 10° N
Cosmos 2181 Rocket 4.0 22:34:39 15° S 22:39:57 82° E 22:46:15 10° NNE
Cosmos-2242 3.6 22:36:32 10° N 22:40:38 45° ENE 22:43:11 21° SE
BREEZE-M DEB (TANK) 3.2 22:38:33 10° W 22:41:22 70° S 22:50:50 10° E
Cosmos 1821 Rocket 4.3 22:35:47 10° N 22:41:57 57° ENE 22:46:22 19° SSE
Cosmos 1932 4.4 22:36:29 10° SSW 22:42:41 75° SE 22:49:02 10° NE
Cosmos 2278 4.2 22:43:22 10° NW 22:48:53 50° WSW 22:52:47 19° S
Cosmos 1602 Rocket 3.7 22:48:54 23° SSE 22:51:21 55° E 22:55:36 10° NNE
SAR-Lupe-4 3.7 22:49:15 10° N 22:52:50 72° WNW 22:55:20 19° SSW
Cosmos 2333 Rocket 3.4 22:49:21 10° NNW 22:54:43 37° NE 23:00:02 10° ESE
Cosmos 2082 Rocket 2.9 22:57:19 10° SW 23:02:55 55° NW 23:08:31 10° NNE
ALOS 2 3.0 23:00:42 22° SE 23:03:20 57° ENE 23:07:40 10° N
Gbstr 26 Del rocket 4.1 23:05:11 24° SE 23:05:32 24° SE 23:09:26 10° E
Nadezhda 3 Rocket 4.2 23:02:12 21° SSE 23:06:13 55° E 23:12:14 10° NNE
Cosmos 1340 Rocket 4.3 23:05:53 19° ESE 23:07:21 23° E 23:10:32 10° NE
Cosmos 1606 2.9 23:05:36 10° N 23:09:26 63° ENE 23:11:18 28° SSE
Cosmos 2360 Rocket 2.5 23:06:20 10° NNW 23:12:01 66° ENE 23:16:15 18° SE
USA 234 3.2 23:07:27 10° ESE 23:14:02 85° SSW 23:20:39 10° WNW
Cosmos 1626 Rocket 3.9 23:10:58 18° SSW 23:14:02 61° WNW 23:18:23 10° N
Cosmos 1633 2.3 23:12:29 30° S 23:14:05 90° ENE 23:17:34 10° N
BREEZE-M DEB (TANK) 3.8 23:03:03 10° WSW 23:14:18 59° SSE 23:17:49 10° E
Cosmos 1992 Rocket 4.5 23:16:42 10° SW 23:21:53 61° WNW 23:27:06 10° NNE
Terra 4.2 23:20:41 10° WSW 23:22:57 13° W 23:25:14 10° WNW
SJ 16-02 1.4 23:19:43 10° NNW 23:24:09 72° WSW 23:26:24 28° S
H-2A R/B 3.6 23:20:42 10° NNE 23:24:52 59° ESE 23:26:52 29° S
Cosmos 1825 Rocket 3.8 23:24:44 28° SSE 23:26:48 56° E 23:31:05 10° NNE
Cosmos 2058 3.2 23:28:04 29° SSE 23:29:58 56° E 23:34:05 10° NNE
Cosmos 2237 4.3 23:25:33 10° NW 23:31:15 67° WSW 23:34:40 25° SSE
USA 276 3.7 23:30:07 10° W 23:31:40 20° WSW 23:31:40 20° WSW
Meteor 2-20 4.5 23:30:58 20° SSW 23:35:19 81° W 23:41:27 10° N
Cosmos 2237 Rocket 4.5 23:32:33 10° NNW 23:36:52 21° NE 23:41:09 10° E
Cosmos 2221 3.2 23:33:38 10° N 23:37:51 46° ENE 23:40:15 23° SE
Meteor 2-2 Rocket 4.4 23:34:31 10° NNW 23:40:34 88° ENE 23:44:23 24° SSE
COSMOS 2428 3.8 23:35:58 10° NNW 23:41:22 41° NE 23:46:44 10° ESE
Cosmos 1980 Rocket 4.4 23:41:18 10° WNW 23:43:32 12° W 23:45:44 10° WSW
Cosmos 1842 Rocket 4.4 23:41:27 10° N 23:45:44 43° ENE 23:48:21 21° SE
SL-16 R/B 2.9 23:40:46 10° NW 23:46:01 40° WSW 23:49:00 23° SSW
ISS -1.4 23:47:44 13° ESE 23:47:44 13° ESE 23:48:23 10° E
ERS-2 2.6 23:42:53 10° NNE 23:46:21 44° E 23:47:29 32° SSE
ADEOS Rocket 3.6 23:42:57 22° S 23:48:04 72° WSW 23:55:53 10° NNW
Cosmos 2219 Rocket 2.7 23:42:49 10° NNW 23:48:27 58° NE 23:53:12 14° SE
COSMOS 2487 4.0 23:49:36 18° ESE 23:49:48 18° ESE 23:51:59 10° NE
SL-4 R/B 2.0 23:49:35 38° S 23:50:06 41° SSE 23:53:36 10° E
Cosmos 1934 Rocket 3.9 23:46:11 10° N 23:52:19 90° WSW 23:56:11 24° S
SL-27 R/B 3.7 23:53:43 23° ESE 23:54:12 23° ESE 23:56:53 10° NE
ATLAS 5 CENTAUR R/B 2.5 23:51:27 10° WSW 23:55:10 43° NW 23:59:27 10° NE
